Weather in Crailsheim

Germany     49°08′14″N   10°04′16″E
temp.,
°C
wind,
m/s
gust,
m/s
humid.,
%
clouds,
%
prec.,
mm/h
press.,
hPa
HPBL,
m
28 october, thu
thu2823:00+6se339218 0.0 102546
02:00+5se33925 0.0 102439
05:00+5ese339259 0.0 102338
08:00+4se37945 0.0 1023116
11:00+9sse45785 0.0 1021264
14:00+13ssw23645 0.0 1019506
17:00+12ssw117316 0.0 101810
20:00+8se22845 0.0 101813
29 october, fri
fri2923:00+7se33875 0.0 101821
02:00+6se22865 0.0 101717
05:00+6se33855 0.0 101622
08:00+5se33865 0.0 101642
11:00+10sse35705 0.0 1015195
14:00+13se3460100 0.0 1013367
17:00+11se227375 0.0 101235
20:00+8se228122 0.0 101417
30 october, sat
sat3023:00+7se227858 0.0 101420
02:00+7se337298 0.0 101426
05:00+7se337494 0.0 101422
08:00+6se337798 0.0 101435
11:00+10ese51069100 0.0 1012251
14:00+12se5867100 0.0 1009416
17:00+10se2482100 0.0 1009103
20:00+9s3382100 0.0 101051
31 october, sun
sun3123:00+10s367531 0.0 1011134
02:00+10s357393 0.0 101171
04:00+10sse4874100 0.0 1012133
07:00+9s348094 0.0 101254
10:00+14sse346738 0.0 1011176
13:00+12se497099 0.0 1010213
16:00+13sse3776100 0.0 1007187
19:00+10se358291 0.0 100789
31 october, sun
sun3122:00+9sse46857 0.0 100579
01:00+9sse4683100 0.0 100375
04:00+10sse4878100 0.0 1001120
07:00+12ssw81790100 1.9 1000512
10:00+9w61197100 5.5 1004654
13:00+9wsw81286100 7.8 10061078
16:00+9wsw51185100 0.2 1007860
19:00+6ssw4119347 0.3 1010296